User: anonymous   Login
Location: Unspecified
(0.0000°N, 0.0000°E)
Time: 07:26:00
(UTC+00:00)
Language:

E-STAR-II - Orbit

View from above orbital plane
View from above orbital plane
View from above satellite
View from above satellite

Ground track
Ground track

The orbit data is extracted from the following two-line orbital elements,

1 41459U 16025D   23266.77034071  .00048595  00000-0  11645-2 0  9995
2 41459  98.1742 118.5088 0094486 113.9734 247.1437 15.36658261408009
Epoch (UTC): 23 September 2023 18:29:17
Eccentricity: 0.0094486
inclination: 98.1742°
perigee height: 391 km
apogee height: 520 km
right ascension of ascending node: 118.5088°
argument of perigee: 113.9734°
revolutions per day: 15.36658261
mean anomaly at epoch: 247.1437°
orbit number at epoch: 40800

The dashed part of the orbit path shows where the satellite is in the earth's shadow,  

DLR